Vorticity
4 4 4 4 3 4 4 4 5 5 5 5 5 5 5 5 5 5 5 5 5 5 5 5 5 6 7 8 8 7 7 7 6 5 5 5 5 5 5 5 5 5 5 5 6 6 6 6 6 6 7 7 8 8 8 9 9 8 8 8 7 7 8 8 7 7 7 6 6 6 5 5 5 4 4 4 3 3 4 4 4 4 4 4 4 4 5 5 4 4 4 3 3 2 2 2 2 2 3 3 4 5 6
4 4 4 4 4 4 4 5 5 5 6 5 5 5 4 4 4 4 4 5 5 5 5 4 4 5 6 7 7 7 6 6 5 5 5 5 5 5 5 5 5 5 5 5 5 5 6 6 6 6 7 7 8 8 8 8 8 8 8 8 8 8 8 8 8 8 7 7 7 6 6 6 5 5 4 4 4 4 4 4 4 4 4 4 5 5 5 4 4 4 4 4 4 3 3 2 2 2 2 2 3 4 5
5 5 4 4 4 4 5 5 6 6 6 5 5 4 4 4 4 4 4 4 4 4 4 4 4 4 4 5 6 6 6 6 5 5 5 5 5 5 5 5 5 5 5 5 5 5 5 6 6 7 7 7 8 8 8 8 8 8 8 7 7 7 8 8 8 8 8 8 8 7 7 6 6 6 5 5 5 5 5 5 5 5 5 5 5 5 5 4 4 4 4 4 4 4 4 3 2 2 2 2 2 3 4
4 5 5 4 4 4 5 5 6 6 6 5 5 4 4 3 3 4 4 4 4 4 4 4 4 4 4 5 6 6 6 5 5 5 5 5 5 5 5 5 5 5 5 5 5 5 5 6 6 7 7 7 8 8 8 8 8 8 7 7 7 7 7 7 8 8 8 8 8 8 8 7 7 6 6 6 6 6 5 6 6 5 5 5 5 5 5 4 4 3 4 4 4 4 4 4 3 2 2 2 2 2 3
4 4 4 4 4 4 5 5 6 6 6 5 5 4 4 3 3 3 4 4 4 4 4 4 4 4 4 5 5 5 5 5 5 5 5 5 5 5 4 5 5 5 5 5 5 6 6 6 6 7 7 8 8 8 8 8 7 7 7 6 6 6 6 6 7 7 8 8 9 9 9 8 8 8 7 7 6 6 6 6 6 6 6 5 5 5 5 5 4 4 4 4 4 5 5 4 4 3 2 2 1 2 2
4 4 4 4 4 4 4 5 5 5 5 5 5 4 4 3 3 3 4 4 4 4 4 4 4 4 4 5 5 5 5 5 5 5 5 5 5 4 4 4 4 5 5 6 6 6 6 6 6 7 7 8 8 8 8 7 7 7 7 6 6 6 6 6 6 6 6 7 8 9 9 9 9 9 8 8 7 7 6 6 6 6 6 6 6 5 5 5 5 4 4 4 4 4 5 5 4 4 3 2 2 2 2
4 4 4 4 4 4 4 4 4 5 5 4 4 4 3 3 3 3 4 4 4 4 4 4 4 4 4 5 5 5 5 5 5 5 5 5 4 4 4 4 4 4 5 5 6 6 6 6 7 7 7 7 8 8 7 7 7 6 6 6 6 6 6 6 6 6 6 6 7 8 9 9 9 9 9 8 8 7 7 6 6 6 6 6 6 6 6 5 5 5 5 5 4 4 4 5 5 4 4 3 2 2 2
4 4 3 3 4 4 4 4 4 4 4 4 4 4 3 3 3 3 3 4 4 4 4 4 4 4 4 5 5 5 6 6 6 6 5 5 4 4 3 3 3 4 4 5 6 6 7 7 7 7 7 7 7 7 7 7 7 6 6 6 6 7 7 7 7 7 6 6 6 7 7 8 9 9 9 9 8 8 7 7 7 6 7 7 7 6 6 6 5 5 5 5 5 5 5 5 5 5 5 4 3 3 2
3 3 3 3 3 3 4 4 4 4 3 3 3 3 3 3 3 3 3 3 4 4 4 4 4 4 4 4 5 5 6 6 6 6 6 5 4 4 3 3 3 4 4 5 5 6 6 6 7 7 7 7 7 7 7 7 7 7 7 7 7 7 7 7 7 7 7 7 7 7 7 8 8 9 9 9 8 8 7 7 7 7 7 7 7 7 7 6 6 6 6 5 5 5 5 5 5 5 5 4 4 4 3
3 3 3 3 3 3 3 3 3 3 3 3 3 3 3 3 3 3 3 3 3 3 4 3 3 4 4 4 4 5 6 6 6 6 6 5 4 4 3 3 3 4 4 5 5 6 6 6 6 6 6 7 7 7 6 6 6 7 7 7 7 7 7 7 7 8 8 8 7 7 7 7 8 8 9 9 8 8 7 7 7 7 7 7 7 7 7 7 7 6 6 6 6 6 5 5 5 5 5 5 5 4 4
3 3 3 3 3 3 3 3 3 3 3 3 3 3 3 3 3 3 3 3 3 3 3 3 3 3 4 4 4 5 5 5 5 6 6 6 5 4 3 3 3 4 4 5 5 5 6 6 6 6 6 6 6 6 6 6 6 7 7 7 7 7 7 7 7 8 8 8 8 8 8 7 7 8 8 8 8 8 8 7 7 7 7 7 7 8 8 8 7 7 6 6 6 6 6 5 5 5 5 5 5 5 5
3 3 3 3 4 4 4 4 3 3 3 3 3 3 3 3 3 3 3 3 3 3 3 3 3 3 3 4 4 4 5 5 5 6 6 6 6 5 4 3 3 4 4 5 5 5 5 5 5 5 5 5 5 5 5 6 6 6 7 7 7 8 8 8 8 8 8 8 8 8 8 7 7 7 7 7 8 8 8 7 7 7 7 7 7 8 8 8 8 7 7 7 7 6 6 6 5 5 5 5 5 5 5
3 3 3 4 4 4 4 4 3 3 3 3 3 3 3 3 3 3 3 3 3 3 3 3 3 3 3 3 4 4 4 4 5 5 6 7 6 6 4 4 4 4 5 5 5 5 4 4 4 4 4 4 4 4 4 5 5 6 6 7 7 7 8 8 8 8 8 8 8 8 8 7 7 6 6 7 7 7 8 8 8 7 7 7 7 8 8 8 8 7 7 7 7 7 6 6 6 5 5 5 5 5 5
3 3 3 4 4 4 4 4 4 3 3 3 3 3 3 3 3 3 3 3 3 3 3 4 4 3 3 3 3 4 4 4 5 5 6 6 6 6 5 5 5 5 5 5 5 5 4 4 3 3 4 3 3 3 3 4 4 5 6 6 7 7 7 8 8 8 8 8 8 8 8 7 7 6 6 6 6 7 7 8 8 8 8 7 7 7 7 7 7 7 7 7 7 7 7 6 6 6 5 5 5 5 5
4 4 4 4 4 4 4 4 4 3 3 3 3 3 3 3 3 3 3 3 3 3 3 3 4 4 3 3 3 4 4 4 4 5 5 6 6 6 6 5 5 5 5 5 5 4 4 3 3 3 3 3 3 3 3 3 4 4 5 6 6 7 7 8 8 8 8 8 8 8 8 8 7 6 6 6 6 6 7 8 8 8 8 8 7 7 7 7 7 7 7 7 7 7 7 7 6 6 6 5 5 5 5
4 4 4 4 4 4 4 4 4 4 3 3 3 3 3 3 3 3 3 2 2 3 3 3 3 4 4 3 4 4 4 4 4 4 5 5 6 6 6 5 5 4 4 4 5 4 4 4 4 4 4 4 4 3 3 3 3 4 4 5 5 6 7 8 8 9 9 8 8 8 8 8 8 7 6 6 5 6 7 7 8 8 8 8 8 7 7 7 7 7 7 7 7 7 7 7 7 7 6 6 5 5 5
5 5 5 5 5 5 5 4 4 4 3 3 3 3 3 3 3 3 3 2 2 2 2 3 3 3 3 3 3 4 4 4 4 5 5 5 6 6 6 5 4 3 3 4 5 5 5 5 5 5 5 5 5 4 3 3 3 3 4 4 5 6 7 8 9 9 9 9 9 8 9 9 8 8 7 6 5 6 6 7 8 8 8 8 8 8 7 7 7 7 7 7 7 7 7 7 7 7 7 6 6 5 5
5 6 6 6 6 5 5 5 5 4 3 3 3 3 3 3 3 3 3 2 2 2 2 2 3 3 3 3 3 4 4 4 4 5 5 5 5 6 6 5 3 3 3 4 5 5 6 6 6 6 6 6 6 5 4 3 3 3 3 3 4 5 6 8 9 9 9 9 8 8 9 9 9 9 8 7 6 5 6 7 7 8 8 9 8 8 8 7 7 7 7 7 7 7 7 7 7 7 7 7 6 6 5
5 6 6 6 6 6 6 6 6 5 4 3 3 2 2 3 3 3 3 3 2 2 2 2 2 2 3 3 3 3 3 4 4 5 5 5 5 6 6 5 4 3 3 4 5 5 6 6 6 6 6 6 6 6 5 4 3 3 3 3 3 4 6 7 9 9 9 9 8 8 8 9 9 10 9 8 7 6 6 6 7 8 8 9 9 9 8 8 7 7 7 7 7 7 7 7 7 7 7 7 6 6 5
4 5 6 6 6 6 7 7 7 6 5 4 3 2 2 2 3 3 3 3 3 3 3 3 3 2 2 2 3 3 3 4 4 5 5 5 5 5 6 5 4 4 3 4 5 5 6 6 6 6 6 6 6 6 6 5 5 4 3 3 3 3 5 7 8 9 9 8 8 7 7 8 9 10 10 9 8 7 6 6 6 7 8 8 9 9 8 8 7 7 7 7 7 7 6 6 6 7 7 7 7 6 6
4 5 5 4 4 5 6 7 7 7 6 5 4 3 2 2 2 3 3 3 3 3 3 3 3 3 2 2 2 2 3 3 4 4 5 5 5 5 5 5 5 4 4 4 5 5 6 6 5 5 5 6 6 6 7 6 6 5 4 3 3 3 4 6 8 9 9 8 7 6 6 7 8 10 10 10 9 8 7 6 6 6 7 8 8 9 9 8 8 7 7 7 7 6 6 6 6 6 7 7 7 7 6
5 5 4 3 3 4 5 6 6 7 7 6 5 4 3 3 3 3 3 3 4 4 4 4 4 4 3 3 2 2 2 3 3 4 5 5 5 4 4 5 5 4 4 4 5 5 6 6 5 5 5 5 5 6 6 6 6 6 5 4 3 3 4 5 7 8 9 8 7 5 5 6 7 8 10 10 10 9 8 7 6 6 6 7 7 8 8 8 8 7 7 7 6 6 6 6 6 6 6 6 7 7 6
6 5 4 3 3 4 4 5 6 6 6 6 6 5 4 4 3 3 3 4 4 4 5 5 5 4 4 4 3 2 2 3 3 4 5 5 5 4 3 4 4 5 5 5 5 6 6 6 5 5 4 4 5 5 6 6 6 6 6 5 4 4 4 5 6 8 8 8 6 5 4 4 5 7 9 10 10 10 9 8 7 6 6 6 6 7 8 8 8 8 7 6 6 6 6 5 5 5 5 6 6 6 6
6 5 4 3 4 5 5 6 6 6 6 5 5 5 4 4 4 3 3 4 4 5 5 5 5 5 5 4 4 3 2 2 3 4 6 6 5 4 3 3 4 4 5 5 6 6 6 6 5 5 4 4 4 5 5 6 6 6 6 5 5 4 4 5 6 7 8 7 5 4 2 3 4 5 7 9 9 10 10 8 7 6 5 5 5 6 7 8 8 8 7 7 6 6 6 5 5 5 5 5 6 6 6
2 4 5 5 6 7 7 7 7 6 5 5 5 4 4 3 3 3 3 3 4 5 5 5 5 5 5 4 4 3 2 3 4 5 6 6 6 5 3 3 3 4 5 6 6 7 6 6 6 5 4 4 4 4 5 5 6 6 6 6 5 5 5 5 6 7 7 7 5 3 2 1 2 4 5 7 9 10 10 9 8 7 6 5 5 5 6 7 8 8 8 7 7 6 6 6 5 5 4 5 5 5 6
2 3 3 5 6 6 7 8 8 7 6 5 5 5 4 2 1 1 1 2 3 5 5 5 5 5 4 3 3 3 2 3 4 5 6 7 6 5 3 2 2 3 5 6 7 7 7 7 6 5 4 4 4 4 5 5 5 5 6 6 5 5 5 6 6 7 7 6 5 3 2 1 1 2 4 6 8 10 10 9 9 8 7 6 5 5 5 6 7 8 9 8 7 7 6 6 5 5 4 4 5 5 6
4 4 5 6 5 5 6 8 9 9 7 6 5 5 4 2 0 -1 -1 0 2 4 5 5 5 4 3 2 1 2 2 3 4 5 7 7 7 6 4 2 2 3 5 6 7 8 8 7 6 5 4 4 4 5 5 5 5 5 5 5 5 6 6 6 6 7 7 6 5 4 2 1 1 2 3 6 8 9 10 10 9 8 7 7 6 5 5 6 7 8 9 9 8 8 7 6 6 5 4 4 4 5 5
6 6 6 5 5 4 5 7 9 11 10 8 7 6 5 3 2 -0 -1 0 2 3 4 4 4 3 2 1 0 1 2 3 4 6 7 7 7 6 4 2 2 3 4 6 8 8 8 7 6 5 4 4 4 5 5 5 5 5 5 5 5 6 6 6 6 6 6 6 5 4 3 2 1 2 3 5 7 9 10 10 9 9 8 7 7 6 6 6 7 8 9 10 9 9 8 7 6 6 5 5 5 5 5
6 6 4 5 5 6 5 5 7 8 9 8 8 7 6 5 3 2 0 2 3 5 5 4 3 2 1 0 -0 0 1 2 4 5 6 7 7 6 4 3 2 3 4 6 8 8 8 8 6 5 4 3 4 4 5 5 5 5 5 5 5 5 6 6 6 6 6 6 5 5 4 3 2 2 3 5 6 8 9 10 10 9 9 8 8 7 7 7 7 8 9 10 10 10 9 8 7 6 6 5 5 5 6
6 6 4 5 5 6 6 6 5 4 3 4 5 6 7 6 5 4 4 5 7 8 7 5 3 2 1 0 0 0 1 2 3 5 6 6 6 5 4 3 3 3 4 6 7 8 9 8 6 4 3 3 3 4 5 5 5 5 5 5 5 5 5 6 6 6 6 6 5 5 4 3 2 2 3 4 6 8 9 10 10 10 9 9 8 8 7 7 7 8 9 10 10 10 10 9 8 7 6 5 5 6 6
6 5 5 4 4 5 7 7 5 3 2 2 3 4 5 6 8 10 10 11 11 11 8 6 4 2 1 1 1 1 1 2 4 5 6 6 5 5 4 3 3 3 4 6 7 8 9 8 6 4 2 1 2 3 4 5 5 5 5 5 5 5 5 5 6 6 6 6 5 5 4 3 3 3 3 4 6 7 9 9 10 10 9 9 8 8 8 7 8 8 9 10 10 10 10 9 8 8 7 6 6 6 6
7 6 6 5 5 5 5 5 4 4 4 2 2 3 3 5 8 11 12 13 13 11 8 5 4 3 2 2 1 1 2 3 5 7 7 7 6 5 5 4 4 4 4 5 7 8 9 7 5 3 1 1 1 3 4 5 5 5 5 5 5 5 5 5 6 6 6 5 5 5 4 4 3 3 3 4 5 7 8 9 10 10 10 9 9 8 8 8 8 8 9 10 10 10 10 9 8 8 7 6 6 6 6
7 7 7 7 6 5 5 4 2 2 2 2 2 1 -0 1 5 9 10 12 11 9 6 4 3 3 2 2 2 2 3 6 8 9 9 7 6 6 5 4 3 3 4 5 6 8 8 7 5 3 1 1 1 2 4 5 5 6 5 5 5 5 5 5 6 6 6 5 5 5 5 4 4 4 4 4 5 6 8 9 9 10 10 9 9 8 8 8 8 8 9 10 10 10 10 9 9 8 7 6 6 6 6
8 7 7 7 7 7 7 5 4 3 3 4 4 3 3 4 9 13 13 10 9 8 5 3 2 2 1 1 2 4 7 9 10 9 8 7 6 5 3 3 2 3 4 6 7 8 8 7 5 3 2 1 1 3 5 6 6 6 6 5 5 5 6 6 6 6 6 6 5 5 5 5 5 4 4 4 5 6 7 8 9 9 9 9 9 8 8 8 8 8 9 10 10 10 10 9 8 8 7 6 6 6 6
8 8 8 8 7 7 7 7 7 6 6 6 5 5 6 3 8 12 9 7 6 5 4 3 2 2 1 1 4 8 13 13 11 8 6 5 5 3 2 1 2 3 5 7 8 8 8 7 5 4 2 2 2 4 6 7 7 7 6 6 6 6 6 6 6 6 6 6 6 5 5 5 5 5 4 5 5 6 7 8 8 9 9 9 9 8 8 8 8 8 9 10 10 10 10 9 8 8 7 6 6 6 6
8 8 8 8 8 8 7 7 7 7 7 7 6 6 6 7 7 5 -2 -0 0 1 4 4 4 3 3 2 6 12 16 13 9 6 4 4 4 3 2 2 3 5 8 9 10 9 8 7 6 4 3 3 4 5 7 8 7 7 6 6 6 6 6 6 7 7 6 6 6 6 6 6 5 5 4 5 5 6 7 7 8 9 9 9 9 8 8 8 8 8 9 9 10 10 10 9 8 7 7 6 6 6 6
8 8 7 8 8 7 7 7 7 7 7 7 7 7 8 8 7 6 6 2 1 4 6 6 6 5 4 4 8 12 13 9 5 4 4 4 4 4 4 5 6 8 10 10 10 9 8 7 6 5 4 4 5 7 9 9 8 7 7 7 7 7 7 7 7 7 7 7 7 7 7 6 5 5 5 5 5 6 7 7 8 8 9 9 9 8 8 8 8 8 8 9 10 10 9 9 8 7 6 6 6 5 6
8 8 8 8 7 7 7 7 7 7 7 7 7 7 7 8 9 10 10 8 9 9 6 7 6 5 5 6 7 7 6 4 4 5 6 5 5 5 6 7 8 9 10 10 9 8 7 6 6 6 5 5 6 8 9 9 8 7 7 7 7 7 7 7 7 7 7 7 7 7 7 6 6 6 5 6 6 6 7 7 7 8 8 9 9 8 8 8 8 8 8 9 9 9 9 8 8 7 6 6 5 5 6
9 9 8 8 8 8 7 7 7 7 7 7 7 7 7 7 8 7 6 4 2 2 4 5 5 4 4 5 5 3 2 4 6 8 8 7 7 7 8 8 7 7 7 8 8 7 7 6 6 6 6 6 7 8 8 8 9 9 9 9 9 9 9 8 8 7 7 7 7 7 7 7 7 6 6 6 6 6 7 7 7 8 8 8 9 8 8 8 8 8 8 9 9 9 9 8 7 7 6 6 5 5 5
9 9 8 8 8 8 8 7 7 7 7 7 7 7 8 8 8 8 8 5 4 4 6 5 4 4 4 4 4 3 3 7 10 12 11 9 7 7 7 6 5 4 5 8 9 8 7 6 6 6 6 6 6 7 8 9 10 11 11 11 11 10 10 9 8 8 8 8 7 7 7 7 7 7 7 7 7 7 7 7 7 7 8 8 8 8 8 8 8 8 8 9 9 9 8 8 7 7 6 6 5 5 5
8 8 8 8 8 8 8 8 8 8 8 8 8 8 8 8 8 7 8 8 8 8 9 8 7 6 6 5 4 3 4 8 12 15 14 10 7 6 5 4 3 3 7 11 12 10 9 7 6 6 6 6 6 7 8 10 11 12 12 12 12 11 10 9 9 9 8 8 8 7 7 8 8 8 8 8 8 7 7 7 7 7 8 8 8 8 8 8 8 8 8 8 9 9 8 8 7 7 6 6 5 5 5
8 8 8 8 8 8 9 9 9 9 9 9 9 9 9 9 8 8 8 8 8 8 8 8 8 8 7 7 6 5 5 9 13 15 14 10 6 3 2 2 3 6 12 17 16 12 9 8 7 7 7 8 8 9 10 11 11 11 12 11 11 10 10 9 9 9 9 9 8 8 7 8 8 8 8 8 8 8 7 7 7 7 7 8 8 8 8 9 8 8 8 8 8 8 8 7 7 6 6 6 5 5 5
7 7 7 8 8 8 9 9 9 9 9 9 9 9 9 9 9 9 9 9 8 8 8 8 8 9 9 8 8 8 9 11 13 14 12 8 4 1 1 2 6 11 17 19 16 11 8 7 7 8 10 10 10 11 11 12 12 12 12 10 9 9 9 9 10 10 10 9 8 8 8 8 8 8 8 8 8 8 7 7 7 7 7 7 8 8 8 9 9 8 8 8 8 8 8 7 7 6 6 6 5 5 5
7 8 8 8 8 8 9 9 9 9 9 9 9 9 9 9 10 10 10 10 9 8 8 8 9 9 9 9 9 10 12 11 11 11 11 6 2 0 1 5 10 14 18 16 13 8 5 5 6 8 10 10 10 10 11 12 12 12 11 9 8 8 9 10 10 10 10 9 8 8 8 8 9 9 8 8 8 8 8 7 7 7 7 7 7 8 8 9 9 9 8 8 8 8 8 7 7 6 6 6 5 5 6
8 9 9 10 10 10 9 9 8 8 8 8 8 8 9 9 9 9 9 9 9 9 8 8 8 8 8 8 8 8 9 9 10 11 10 5 1 1 4 11 15 15 13 9 6 4 3 4 6 8 11 12 12 11 10 11 11 10 8 8 8 9 10 10 10 10 10 9 8 8 8 8 9 9 8 8 8 8 8 8 8 7 7 7 7 7 8 8 9 9 8 8 8 8 8 8 7 7 6 6 6 5 6
10 10 10 10 10 10 9 8 7 7 7 7 8 8 8 9 9 8 8 8 8 8 7 7 6 6 7 7 7 7 7 7 9 9 10 3 1 3 9 16 16 11 5 3 2 3 3 4 7 10 12 13 13 12 11 9 8 7 7 9 10 11 12 11 11 11 10 9 8 8 8 8 9 9 8 8 8 8 9 8 8 8 7 7 7 7 8 8 9 9 8 8 8 8 8 7 7 7 6 6 6 6 6
10 10 9 9 8 8 7 6 6 6 6 6 7 7 7 8 7 7 7 6 6 6 6 5 4 4 4 5 6 6 6 7 8 8 6 0 1 5 12 16 13 7 2 3 4 5 5 7 9 11 13 14 13 12 9 8 7 7 9 11 12 13 13 12 11 11 11 10 9 8 8 8 9 9 9 8 8 8 9 9 8 8 7 7 7 7 8 8 8 8 8 8 7 7 7 7 7 7 6 6 6 6 6
9 9 8 7 6 6 5 5 5 5 5 5 6 6 6 7 6 6 5 5 4 4 4 3 3 2 2 3 3 4 4 5 6 6 4 3 5 9 16 14 9 4 1 4 6 7 8 10 11 12 13 14 12 10 7 7 7 9 11 12 13 14 13 12 11 11 11 10 9 8 8 9 9 9 9 8 8 8 9 9 9 8 7 7 7 7 7 8 8 8 8 8 7 7 7 7 7 7 6 6 6 6 6
8 8 7 6 5 4 4 3 3 4 4 4 4 5 5 5 5 5 4 4 3 2 2 2 1 1 1 1 1 2 3 4 5 5 5 6 7 11 19 13 7 2 0 3 4 6 8 11 12 13 14 13 10 7 6 7 8 10 11 12 13 13 12 11 11 11 11 10 9 9 9 10 9 9 8 7 7 8 9 9 9 8 8 7 7 7 7 8 8 8 8 8 7 7 7 7 7 7 7 6 6 6 6
7 6 5 4 3 2 1 1 1 1 1 2 2 3 3 4 4 4 3 3 2 1 0 0 0 0 0 0 0 1 1 3 3 4 5 6 9 14 19 11 5 2 2 2 3 4 8 10 13 15 16 13 9 7 6 8 9 10 11 12 13 12 12 11 11 11 11 11 10 10 10 9 8 7 6 6 7 7 9 9 9 9 8 7 7 7 7 8 8 8 8 8 7 7 7 7 7 7 7 6 6 6 6
6 4 3 2 1 0 -1 -1 -1 -1 -1 -0 1 1 2 2 3 3 3 2 2 1 1 -0 -0 0 1 0 0 1 1 2 3 4 4 7 17 23 17 1 -2 1 6 4 5 6 8 11 14 18 19 14 10 7 8 9 10 10 11 12 12 12 12 11 11 11 12 12 12 11 10 8 7 6 6 6 6 7 9 10 10 9 8 7 7 7 7 8 8 8 8 8 7 7 7 7 7 7 7 7 6 6 6
5 3 1 0 -1 -1 -2 -2 -2 -2 -2 -1 0 1 2 2 3 4 4 4 4 3 3 2 1 1 2 2 2 1 2 1 3 5 4 9 18 20 8 -6 -4 4 10 7 9 11 12 12 16 20 19 13 10 9 10 11 11 11 11 11 12 12 11 11 11 11 12 12 12 10 9 7 6 6 6 6 7 8 9 10 10 9 8 7 7 7 7 8 8 8 8 8 7 7 7 7 7 7 7 7 6 6 6
4 3 1 -0 -1 -2 -2 -2 -1 -1 -0 0 1 2 3 4 4 5 5 6 6 6 6 5 4 3 3 4 4 3 4 3 3 3 5 8 8 5 2 -5 -2 5 6 6 9 11 12 13 17 19 16 11 9 10 11 11 12 12 11 12 12 12 12 12 12 11 11 11 10 9 8 7 7 7 7 7 8 9 10 10 10 9 8 7 7 7 7 8 8 8 8 8 8 7 7 7 7 7 7 7 7 6 6
5 4 3 2 1 1 1 2 2 3 4 4 5 5 5 6 6 6 7 7 7 8 8 8 8 7 5 5 5 5 5 6 4 4 6 8 7 2 -6 -5 -0 6 11 8 6 7 11 13 14 14 10 7 7 8 10 10 11 11 11 12 12 12 11 10 9 9 9 9 8 8 8 8 8 8 9 9 9 10 11 11 10 9 7 7 7 7 7 8 8 8 8 8 8 7 7 7 8 7 7 7 7 6 6
7 7 6 6 6 6 6 7 7 8 9 9 10 10 10 10 9 9 9 8 8 9 9 10 10 10 9 8 7 7 7 7 7 6 6 6 6 0 -14 -7 -1 5 11 1 3 8 9 10 8 5 2 2 3 5 8 9 9 9 10 10 11 11 10 10 10 10 10 9 9 9 10 10 10 10 10 10 11 11 12 11 10 9 7 7 7 7 7 7 8 8 8 8 8 7 7 7 7 7 7 7 7 6 6
8 8 9 9 9 9 9 9 10 10 10 10 11 12 12 12 12 11 11 11 10 10 11 11 11 12 12 10 9 9 8 8 8 8 6 5 4 3 -1 1 1 2 4 5 8 10 10 6 -0 -5 -5 -3 -0 3 6 7 7 8 8 10 11 12 12 11 11 10 9 9 9 10 10 11 11 11 11 11 12 12 12 11 10 8 7 7 6 6 7 7 7 7 8 7 7 7 7 7 7 7 7 7 7 7 6
9 10 10 10 10 10 10 10 10 9 9 9 10 10 11 12 12 12 12 12 12 12 12 12 12 12 14 13 12 10 9 9 9 9 8 6 4 3 2 1 1 2 4 7 8 8 10 4 -5 -10 -8 -4 -0 3 4 6 7 7 8 10 12 13 13 12 11 10 9 9 9 9 10 11 11 11 11 12 12 12 12 11 9 8 7 6 6 6 6 6 7 7 7 7 6 6 6 6 6 6 7 7 7 7 6
11 12 12 12 12 12 12 11 11 11 10 10 10 11 12 12 13 13 13 13 13 13 13 13 13 13 13 14 13 10 11 10 9 9 9 8 7 6 6 6 5 5 7 10 12 12 10 5 -2 -6 -6 0 4 5 5 6 7 8 9 11 12 13 13 12 11 10 9 9 8 9 9 10 11 11 11 12 12 12 11 10 9 8 7 6 6 6 6 6 6 6 6 6 6 7 6 6 6 6 6 7 7 7 7
15 16 17 18 19 20 20 20 20 19 19 18 17 17 17 18 18 17 16 15 14 13 13 13 13 12 10 9 9 10 11 11 10 9 9 9 9 8 7 6 6 7 8 11 14 14 12 8 4 2 4 5 6 6 8 8 8 8 9 11 12 13 12 11 10 9 8 9 9 9 10 10 11 12 12 12 12 12 11 10 8 7 7 6 6 5 5 5 5 5 5 6 7 8 8 7 6 6 6 7 7 7 7
23 25 27 28 29 31 32 33 33 33 32 30 29 27 26 26 26 25 24 22 20 18 16 14 13 12 12 11 10 10 10 11 11 11 10 9 9 8 8 7 7 8 9 11 12 12 11 7 4 3 6 6 5 5 8 9 9 9 9 10 11 12 11 10 9 8 8 9 9 10 10 10 11 12 12 12 12 11 10 9 8 7 6 6 6 5 5 5 5 5 5 6 8 10 11 10 9 7 6 7 7 7 7
29 30 31 32 32 33 35 37 38 40 40 39 37 35 33 32 31 31 31 30 27 24 21 18 16 15 14 13 13 13 13 13 12 12 13 11 10 8 8 7 7 8 10 13 12 10 6 1 -1 -1 1 1 2 4 6 7 8 9 11 11 11 11 10 9 8 8 8 9 10 10 10 10 11 11 12 12 11 11 9 8 7 7 6 6 6 6 6 6 6 5 5 6 8 11 14 13 12 9 7 7 7 7 7
Height
5875 5874 5874 5874 5874 5874 5874 5873 5873 5873 5873 5873 5873 5873 5873 5873 5873 5873 5872 5872 5872 5872 5872 5871 5871 5872 5872 5872 5871 5871 5870 5870 5870 5869 5869 5868 5868 5867 5867 5867 5867 5867 5867 5867 5867 5867 5867 5867 5867 5867 5866 5866 5866 5866 5866 5865 5865 5865 5865 5865 5864 5864 5864 5864 5864 5863 5863 5863 5863 5862 5862 5862 5862 5862 5862 5862 5861 5861 5861 5861 5861 5861 5860 5860 5860 5860 5860 5859 5859 5859 5859 5858 5858 5858 5857 5857 5857 5857 5857 5856 5856 5856 5855
5873 5873 5873 5872 5872 5872 5872 5872 5872 5872 5872 5872 5872 5872 5872 5872 5871 5871 5871 5871 5871 5871 5871 5870 5870 5870 5871 5871 5871 5870 5869 5869 5868 5868 5868 5867 5867 5866 5866 5866 5866 5866 5866 5866 5866 5866 5865 5865 5865 5865 5865 5865 5864 5864 5864 5864 5864 5864 5863 5863 5863 5863 5862 5862 5862 5862 5862 5862 5861 5861 5861 5861 5861 5860 5860 5860 5860 5860 5859 5859 5859 5859 5859 5859 5858 5858 5858 5858 5858 5858 5857 5857 5857 5857 5856 5856 5856 5855 5855 5855 5855 5854 5854
5872 5872 5872 5872 5871 5871 5871 5871 5871 5871 5871 5870 5870 5870 5870 5870 5870 5870 5869 5869 5869 5869 5869 5869 5869 5869 5869 5869 5869 5869 5868 5868 5867 5867 5867 5866 5865 5865 5864 5864 5864 5864 5864 5864 5864 5864 5864 5864 5863 5863 5863 5863 5863 5862 5862 5862 5862 5862 5862 5862 5861 5861 5861 5861 5861 5861 5860 5860 5860 5859 5859 5859 5859 5859 5858 5858 5858 5858 5858 5858 5858 5857 5857 5857 5857 5857 5857 5857 5857 5857 5856 5856 5856 5856 5855 5855 5854 5854 5854 5854 5853 5853 5853
5871 5871 5870 5870 5870 5870 5870 5870 5869 5869 5869 5869 5869 5869 5868 5868 5868 5868 5868 5868 5867 5867 5867 5867 5867 5867 5867 5867 5868 5868 5867 5867 5867 5866 5866 5865 5864 5863 5863 5863 5862 5862 5862 5862 5862 5862 5862 5862 5862 5862 5862 5861 5861 5861 5861 5861 5861 5860 5860 5860 5860 5860 5859 5859 5859 5859 5859 5858 5858 5858 5858 5857 5857 5857 5857 5857 5857 5857 5857 5856 5856 5856 5856 5856 5856 5855 5855 5855 5855 5855 5855 5855 5854 5854 5854 5854 5853 5853 5852 5852 5852 5852 5852
5870 5869 5869 5869 5869 5868 5868 5868 5868 5868 5868 5867 5867 5867 5867 5867 5867 5867 5866 5866 5866 5866 5866 5866 5866 5866 5866 5866 5866 5866 5866 5865 5865 5865 5865 5864 5863 5862 5862 5862 5861 5861 5861 5860 5860 5860 5860 5860 5860 5860 5860 5860 5860 5859 5859 5859 5859 5859 5858 5858 5858 5858 5858 5858 5857 5857 5857 5857 5857 5856 5856 5856 5856 5856 5855 5855 5855 5855 5855 5855 5855 5854 5854 5854 5854 5854 5854 5854 5853 5853 5853 5853 5853 5853 5853 5852 5852 5852 5851 5851 5851 5851 5850
5868 5868 5868 5867 5867 5867 5867 5867 5867 5867 5866 5866 5866 5866 5865 5865 5865 5865 5865 5864 5864 5864 5864 5864 5864 5864 5864 5864 5865 5865 5864 5863 5863 5863 5863 5862 5862 5861 5861 5860 5860 5860 5859 5859 5859 5858 5858 5858 5858 5858 5858 5858 5858 5858 5857 5857 5857 5857 5857 5857 5857 5856 5856 5856 5856 5856 5855 5855 5855 5855 5854 5854 5854 5854 5854 5854 5854 5853 5853 5853 5853 5853 5852 5852 5852 5852 5852 5852 5852 5852 5852 5852 5852 5851 5851 5851 5851 5851 5850 5850 5849 5849 5849
5867 5866 5866 5866 5866 5866 5865 5865 5865 5865 5865 5865 5864 5864 5864 5863 5863 5863 5863 5863 5862 5862 5862 5862 5862 5862 5862 5862 5863 5863 5863 5862 5862 5862 5862 5862 5861 5860 5859 5859 5858 5858 5858 5858 5857 5857 5857 5857 5857 5857 5857 5857 5856 5856 5856 5856 5855 5855 5855 5855 5855 5854 5854 5854 5854 5854 5854 5853 5853 5853 5853 5852 5852 5852 5852 5852 5852 5852 5852 5852 5851 5851 5851 5851 5851 5851 5851 5850 5850 5850 5850 5850 5850 5850 5850 5850 5849 5849 5849 5848 5848 5848 5847
5865 5865 5865 5864 5864 5864 5864 5864 5863 5863 5863 5863 5863 5862 5862 5862 5862 5862 5861 5861 5861 5861 5860 5860 5860 5860 5861 5861 5861 5861 5861 5861 5861 5861 5861 5860 5859 5858 5858 5857 5857 5857 5857 5856 5856 5856 5856 5855 5855 5855 5855 5855 5855 5854 5854 5854 5854 5853 5853 5853 5853 5853 5852 5852 5852 5852 5852 5852 5852 5851 5851 5851 5851 5850 5850 5850 5850 5850 5850 5850 5850 5850 5849 5849 5849 5849 5849 5849 5849 5848 5848 5848 5848 5848 5848 5848 5848 5848 5847 5847 5847 5847 5846
5864 5863 5863 5863 5862 5862 5862 5862 5862 5862 5862 5862 5861 5861 5861 5860 5860 5860 5860 5859 5859 5859 5858 5858 5858 5858 5858 5859 5859 5859 5859 5859 5859 5859 5859 5859 5858 5857 5856 5856 5855 5855 5855 5855 5855 5854 5854 5854 5854 5853 5853 5853 5853 5853 5852 5852 5852 5852 5852 5852 5851 5851 5851 5851 5850 5850 5850 5850 5850 5849 5849 5849 5849 5849 5849 5848 5848 5848 5848 5848 5848 5848 5848 5847 5847 5847 5847 5847 5847 5847 5847 5847 5847 5847 5847 5847 5847 5847 5846 5846 5846 5845 5845
5862 5862 5862 5861 5861 5861 5860 5860 5860 5860 5860 5860 5859 5859 5859 5859 5858 5858 5858 5858 5857 5857 5857 5856 5856 5856 5856 5857 5857 5857 5857 5857 5857 5857 5857 5857 5857 5856 5855 5854 5854 5853 5853 5853 5853 5853 5852 5852 5852 5852 5852 5852 5852 5851 5851 5851 5850 5850 5850 5850 5850 5849 5849 5849 5849 5848 5848 5848 5848 5848 5847 5847 5847 5847 5847 5847 5847 5847 5846 5846 5846 5846 5846 5846 5846 5846 5846 5846 5845 5845 5845 5845 5845 5845 5845 5845 5845 5845 5845 5844 5844 5844 5843
5861 5860 5860 5860 5859 5859 5859 5858 5858 5858 5858 5858 5857 5857 5857 5857 5857 5857 5856 5856 5856 5856 5855 5855 5854 5854 5854 5854 5855 5855 5855 5855 5855 5855 5855 5855 5855 5854 5853 5853 5852 5852 5852 5851 5851 5851 5851 5851 5850 5850 5850 5850 5850 5850 5849 5849 5849 5848 5848 5848 5848 5848 5847 5847 5847 5847 5847 5846 5846 5846 5846 5846 5845 5845 5845 5845 5845 5845 5845 5844 5844 5844 5844 5844 5844 5844 5844 5844 5844 5844 5844 5844 5844 5844 5844 5844 5843 5843 5843 5843 5843 5842 5842
5859 5859 5858 5858 5857 5857 5857 5857 5857 5856 5856 5856 5856 5855 5855 5855 5855 5855 5855 5854 5854 5854 5853 5853 5852 5852 5852 5852 5852 5853 5853 5853 5853 5853 5853 5853 5853 5852 5852 5851 5850 5850 5849 5849 5849 5849 5849 5849 5849 5849 5849 5848 5848 5848 5847 5847 5847 5847 5847 5847 5846 5846 5846 5845 5845 5845 5845 5845 5844 5844 5844 5844 5844 5843 5843 5843 5843 5843 5843 5843 5842 5842 5842 5842 5842 5842 5842 5842 5842 5842 5842 5842 5842 5842 5842 5842 5842 5842 5842 5842 5841 5841 5841
5857 5857 5857 5856 5856 5856 5855 5855 5855 5854 5854 5854 5854 5853 5853 5853 5853 5853 5853 5852 5852 5852 5852 5851 5851 5850 5850 5851 5851 5851 5851 5851 5851 5851 5851 5851 5851 5851 5850 5849 5848 5848 5847 5847 5847 5847 5847 5847 5847 5847 5847 5847 5847 5847 5846 5846 5845 5845 5845 5845 5845 5844 5844 5844 5843 5843 5843 5843 5843 5842 5842 5842 5842 5842 5842 5842 5841 5841 5841 5841 5841 5841 5841 5841 5841 5841 5841 5840 5840 5840 5840 5840 5840 5840 5840 5840 5840 5840 5840 5840 5840 5839 5839
5855 5855 5855 5854 5854 5854 5854 5853 5853 5852 5852 5852 5852 5851 5851 5851 5851 5851 5851 5851 5851 5851 5850 5850 5849 5848 5848 5848 5849 5849 5849 5849 5848 5849 5849 5849 5849 5849 5848 5847 5847 5846 5846 5845 5845 5845 5845 5845 5845 5845 5845 5845 5845 5845 5844 5844 5844 5843 5843 5843 5843 5842 5842 5842 5842 5842 5841 5841 5841 5841 5841 5841 5840 5840 5840 5840 5840 5839 5839 5839 5839 5839 5839 5839 5839 5839 5839 5839 5839 5838 5838 5838 5838 5838 5838 5838 5838 5838 5838 5838 5838 5838 5838
5853 5853 5853 5852 5852 5852 5852 5852 5851 5851 5850 5850 5850 5849 5849 5849 5849 5849 5849 5849 5849 5849 5848 5848 5847 5847 5847 5847 5847 5847 5847 5847 5847 5847 5847 5847 5847 5847 5846 5845 5845 5844 5844 5844 5843 5843 5843 5843 5843 5843 5843 5843 5843 5843 5843 5842 5842 5842 5842 5841 5841 5841 5841 5840 5840 5840 5840 5839 5839 5839 5839 5839 5839 5839 5838 5838 5838 5838 5838 5837 5837 5837 5837 5837 5837 5837 5837 5837 5837 5837 5837 5837 5837 5837 5837 5837 5837 5837 5837 5837 5836 5836 5836
5851 5851 5851 5850 5850 5850 5850 5849 5849 5849 5848 5848 5847 5847 5847 5847 5847 5847 5847 5847 5847 5847 5847 5846 5846 5845 5845 5844 5844 5844 5844 5844 5844 5844 5844 5844 5844 5844 5844 5843 5843 5843 5842 5842 5842 5842 5842 5842 5842 5842 5841 5841 5841 5841 5841 5841 5840 5840 5840 5839 5839 5839 5839 5838 5838 5838 5838 5837 5837 5837 5837 5837 5837 5837 5837 5837 5836 5836 5836 5836 5836 5836 5836 5835 5835 5835 5835 5835 5835 5835 5835 5835 5835 5835 5835 5835 5835 5835 5835 5835 5835 5834 5834
5849 5848 5848 5848 5848 5848 5847 5847 5847 5847 5847 5846 5846 5845 5845 5844 5844 5844 5844 5844 5844 5844 5844 5844 5844 5843 5843 5843 5842 5842 5842 5842 5842 5842 5842 5842 5842 5842 5842 5842 5842 5841 5841 5841 5840 5840 5840 5840 5839 5839 5839 5839 5839 5839 5839 5838 5838 5838 5837 5837 5837 5837 5837 5837 5836 5836 5836 5836 5836 5836 5836 5835 5835 5835 5835 5835 5835 5834 5834 5834 5834 5834 5834 5834 5834 5833 5833 5833 5833 5833 5833 5833 5833 5833 5833 5833 5833 5833 5833 5833 5833 5833 5832
5846 5846 5846 5846 5845 5845 5845 5845 5845 5845 5844 5844 5844 5843 5842 5842 5842 5841 5841 5841 5842 5842 5842 5842 5842 5842 5841 5841 5841 5841 5840 5840 5840 5840 5840 5840 5841 5841 5841 5841 5840 5840 5839 5839 5838 5838 5838 5837 5837 5837 5837 5837 5837 5837 5837 5837 5836 5836 5836 5835 5835 5835 5835 5834 5834 5834 5834 5834 5834 5834 5834 5833 5833 5833 5833 5833 5833 5833 5832 5832 5832 5832 5832 5832 5832 5832 5832 5832 5832 5832 5831 5831 5831 5831 5831 5831 5831 5831 5831 5831 5831 5831 5831
5844 5843 5843 5843 5843 5843 5842 5842 5842 5842 5842 5842 5842 5841 5841 5840 5839 5839 5839 5839 5839 5839 5839 5839 5839 5840 5839 5839 5839 5838 5838 5838 5838 5839 5839 5839 5839 5839 5839 5839 5838 5837 5837 5837 5837 5836 5836 5835 5835 5835 5835 5835 5835 5835 5835 5834 5834 5834 5834 5833 5833 5833 5833 5832 5832 5832 5832 5832 5832 5832 5832 5832 5832 5832 5831 5831 5831 5831 5831 5831 5830 5830 5830 5830 5830 5830 5830 5830 5830 5830 5830 5830 5829 5829 5829 5829 5829 5829 5829 5829 5829 5829 5829
5841 5841 5841 5841 5840 5840 5840 5840 5840 5840 5839 5839 5839 5839 5838 5838 5837 5837 5836 5836 5836 5836 5836 5836 5837 5837 5837 5837 5837 5836 5836 5836 5836 5837 5837 5837 5837 5837 5837 5836 5836 5836 5835 5835 5834 5834 5833 5833 5833 5833 5833 5832 5832 5832 5832 5832 5832 5832 5832 5832 5831 5831 5831 5830 5830 5830 5830 5830 5830 5830 5830 5830 5830 5830 5829 5829 5829 5829 5829 5829 5828 5828 5828 5828 5828 5828 5828 5828 5828 5828 5828 5828 5828 5828 5827 5827 5827 5827 5827 5827 5827 5827 5827
5839 5838 5838 5838 5838 5837 5837 5837 5837 5837 5837 5837 5836 5836 5836 5836 5835 5835 5834 5834 5833 5833 5833 5833 5833 5834 5834 5834 5834 5834 5833 5833 5833 5834 5834 5834 5834 5834 5834 5834 5834 5833 5833 5832 5832 5832 5831 5831 5831 5831 5830 5830 5830 5830 5830 5830 5830 5830 5830 5829 5829 5829 5828 5828 5828 5828 5828 5828 5828 5828 5828 5828 5828 5827 5827 5827 5827 5827 5827 5827 5827 5827 5827 5826 5826 5826 5826 5826 5826 5826 5826 5826 5826 5826 5826 5826 5826 5826 5826 5825 5825 5825 5825
5836 5836 5836 5835 5835 5835 5835 5834 5834 5834 5834 5834 5834 5833 5833 5833 5833 5832 5832 5831 5831 5831 5831 5831 5831 5831 5831 5831 5831 5831 5831 5831 5831 5831 5831 5831 5832 5832 5832 5832 5832 5831 5831 5830 5830 5829 5829 5829 5828 5828 5828 5828 5828 5828 5828 5828 5828 5827 5827 5827 5827 5827 5827 5826 5826 5826 5826 5826 5826 5826 5826 5826 5826 5826 5825 5825 5825 5825 5825 5825 5825 5825 5825 5824 5824 5824 5824 5824 5824 5824 5824 5824 5824 5824 5824 5824 5824 5824 5824 5823 5823 5823 5823
5833 5833 5833 5833 5832 5832 5832 5832 5832 5832 5831 5831 5831 5831 5831 5830 5830 5830 5829 5829 5829 5828 5828 5828 5828 5828 5828 5828 5828 5828 5828 5828 5828 5828 5828 5828 5829 5829 5829 5829 5829 5829 5828 5828 5827 5827 5827 5826 5826 5826 5826 5826 5826 5826 5826 5826 5826 5825 5825 5825 5825 5824 5824 5824 5824 5824 5824 5824 5824 5824 5824 5824 5823 5823 5823 5823 5823 5823 5823 5823 5823 5822 5822 5822 5822 5822 5822 5822 5822 5822 5822 5822 5822 5822 5822 5822 5822 5822 5822 5822 5822 5822 5821
5830 5830 5830 5831 5831 5829 5829 5829 5829 5828 5828 5828 5828 5828 5827 5827 5827 5827 5827 5827 5826 5826 5826 5825 5825 5825 5825 5825 5825 5825 5825 5825 5825 5825 5825 5825 5826 5826 5827 5827 5827 5826 5826 5826 5825 5825 5824 5824 5824 5823 5823 5823 5823 5823 5823 5823 5823 5823 5823 5822 5822 5822 5822 5822 5822 5822 5822 5822 5822 5822 5822 5822 5822 5821 5821 5821 5821 5821 5821 5821 5821 5821 5820 5820 5820 5820 5821 5821 5821 5821 5820 5820 5820 5820 5820 5820 5820 5820 5820 5820 5820 5819 5819
5828 5827 5827 5828 5828 5827 5826 5826 5826 5826 5825 5825 5825 5825 5825 5825 5824 5824 5824 5824 5824 5823 5823 5823 5822 5822 5822 5822 5822 5822 5822 5822 5822 5822 5822 5822 5823 5823 5823 5824 5824 5824 5823 5823 5823 5822 5822 5822 5822 5821 5821 5821 5821 5821 5821 5821 5821 5821 5820 5820 5820 5820 5820 5819 5819 5819 5819 5819 5819 5819 5819 5819 5819 5819 5819 5819 5819 5819 5819 5818 5818 5818 5818 5818 5818 5818 5818 5818 5818 5818 5818 5818 5818 5818 5818 5818 5818 5818 5818 5818 5817 5817 5817
5826 5827 5825 5825 5824 5823 5823 5822 5822 5822 5822 5822 5822 5822 5822 5822 5822 5821 5821 5821 5821 5821 5820 5820 5820 5820 5819 5819 5819 5819 5819 5819 5819 5820 5820 5820 5820 5820 5821 5821 5821 5821 5821 5821 5821 5820 5820 5820 5819 5819 5818 5818 5818 5818 5818 5818 5818 5818 5818 5818 5817 5817 5817 5817 5817 5817 5817 5817 5817 5817 5817 5817 5817 5817 5817 5817 5817 5817 5817 5816 5816 5816 5816 5816 5816 5816 5817 5817 5817 5816 5817 5817 5817 5816 5816 5816 5816 5816 5816 5816 5816 5815 5815
5823 5824 5824 5823 5822 5822 5821 5820 5819 5819 5819 5819 5819 5819 5819 5819 5818 5818 5818 5818 5818 5817 5817 5817 5817 5817 5817 5817 5817 5817 5817 5817 5817 5817 5817 5817 5817 5817 5818 5818 5818 5819 5818 5818 5818 5818 5817 5817 5817 5817 5816 5816 5816 5816 5816 5816 5815 5815 5815 5815 5815 5815 5815 5814 5814 5814 5814 5814 5814 5814 5814 5814 5814 5814 5814 5814 5814 5814 5814 5814 5814 5814 5814 5814 5814 5814 5814 5814 5814 5814 5815 5815 5815 5814 5814 5814 5814 5814 5814 5814 5813 5813 5813
5819 5819 5819 5820 5821 5820 5819 5819 5818 5816 5816 5816 5815 5815 5816 5816 5816 5815 5815 5815 5815 5815 5815 5815 5814 5814 5814 5814 5814 5814 5814 5814 5814 5814 5814 5814 5814 5815 5815 5815 5816 5816 5816 5816 5815 5815 5815 5815 5814 5814 5814 5813 5813 5813 5813 5813 5813 5813 5813 5813 5813 5812 5812 5812 5812 5812 5812 5812 5812 5812 5812 5812 5812 5812 5812 5812 5812 5812 5812 5812 5812 5812 5812 5812 5812 5812 5812 5812 5812 5812 5812 5812 5812 5812 5812 5812 5812 5812 5812 5812 5812 5812 5812
5815 5815 5815 5816 5817 5816 5815 5815 5816 5816 5814 5814 5812 5812 5812 5812 5812 5812 5812 5812 5812 5812 5812 5812 5812 5811 5811 5811 5811 5811 5811 5811 5811 5811 5811 5812 5812 5812 5812 5812 5812 5812 5813 5813 5812 5812 5812 5812 5812 5812 5811 5811 5811 5810 5810 5810 5810 5810 5810 5810 5810 5810 5810 5810 5810 5809 5809 5809 5809 5809 5809 5809 5809 5809 5809 5810 5810 5810 5810 5809 5809 5809 5809 5809 5809 5809 5809 5809 5810 5810 5810 5810 5810 5810 5810 5810 5810 5810 5810 5810 5810 5809 5809
5812 5812 5812 5812 5811 5811 5812 5812 5811 5811 5811 5813 5812 5810 5809 5809 5808 5808 5808 5809 5809 5808 5808 5808 5808 5808 5808 5808 5808 5808 5808 5808 5808 5809 5809 5809 5809 5809 5809 5809 5809 5809 5810 5810 5810 5809 5809 5809 5809 5809 5809 5808 5808 5808 5807 5807 5807 5807 5807 5808 5808 5807 5807 5807 5807 5807 5807 5807 5807 5807 5807 5807 5807 5807 5807 5807 5807 5807 5807 5807 5807 5807 5807 5807 5807 5807 5807 5807 5807 5807 5808 5808 5808 5808 5808 5808 5808 5808 5808 5807 5807 5807 5807
5808 5809 5810 5809 5808 5807 5808 5808 5807 5807 5807 5808 5808 5808 5808 5806 5805 5805 5804 5805 5805 5805 5805 5805 5805 5805 5805 5805 5805 5805 5805 5805 5805 5806 5806 5806 5806 5806 5806 5806 5806 5806 5806 5807 5807 5807 5807 5807 5807 5807 5806 5806 5806 5805 5805 5805 5805 5805 5805 5805 5805 5805 5805 5805 5805 5805 5804 5804 5804 5804 5804 5804 5804 5804 5804 5804 5805 5805 5805 5805 5805 5805 5805 5805 5805 5805 5805 5805 5805 5805 5806 5806 5806 5806 5806 5806 5806 5806 5806 5806 5805 5805 5805
5805 5805 5805 5805 5805 5804 5804 5804 5804 5803 5803 5804 5803 5804 5805 5803 5803 5802 5801 5801 5802 5802 5802 5802 5802 5802 5802 5802 5802 5802 5802 5802 5802 5802 5803 5803 5803 5803 5803 5803 5803 5803 5803 5803 5803 5804 5804 5804 5804 5804 5804 5803 5803 5803 5802 5802 5802 5802 5802 5802 5802 5802 5802 5802 5802 5802 5802 5802 5802 5802 5802 5802 5802 5802 5802 5802 5802 5802 5802 5802 5802 5802 5802 5802 5802 5802 5802 5803 5803 5803 5803 5803 5803 5803 5803 5803 5803 5803 5803 5803 5803 5803 5803
5801 5801 5801 5801 5801 5800 5801 5802 5801 5800 5800 5802 5801 5799 5800 5800 5801 5801 5798 5797 5797 5798 5798 5798 5798 5798 5798 5798 5798 5798 5798 5799 5799 5799 5799 5799 5800 5800 5800 5800 5800 5800 5800 5800 5800 5801 5801 5801 5801 5801 5801 5801 5801 5800 5800 5800 5799 5799 5799 5799 5799 5799 5799 5799 5799 5799 5799 5799 5799 5799 5799 5799 5799 5799 5800 5800 5800 5799 5800 5800 5800 5800 5800 5800 5800 5800 5800 5800 5801 5801 5801 5801 5801 5802 5801 5801 5801 5801 5801 5801 5801 5801 5801
5798 5798 5798 5798 5797 5797 5797 5796 5796 5797 5798 5798 5797 5796 5796 5798 5799 5799 5797 5793 5793 5795 5795 5795 5795 5795 5795 5795 5795 5795 5795 5795 5796 5796 5796 5796 5796 5796 5796 5797 5797 5797 5797 5797 5797 5797 5797 5798 5798 5798 5798 5797 5797 5797 5797 5797 5797 5796 5796 5797 5797 5797 5797 5797 5797 5797 5797 5797 5797 5797 5797 5797 5797 5797 5797 5797 5797 5797 5797 5797 5797 5797 5797 5797 5797 5797 5798 5798 5798 5799 5799 5799 5799 5799 5799 5799 5799 5799 5799 5799 5799 5799 5799
5794 5794 5794 5794 5794 5794 5794 5793 5793 5793 5792 5792 5792 5792 5792 5793 5795 5797 5796 5791 5790 5791 5791 5791 5792 5792 5791 5792 5792 5792 5792 5792 5792 5792 5792 5792 5792 5793 5793 5793 5793 5793 5793 5793 5793 5794 5794 5795 5795 5795 5795 5795 5795 5795 5795 5794 5794 5793 5793 5793 5794 5794 5794 5794 5794 5794 5794 5794 5794 5794 5794 5794 5794 5794 5794 5794 5795 5795 5795 5794 5794 5794 5794 5795 5795 5795 5795 5796 5796 5796 5797 5797 5797 5797 5797 5797 5797 5797 5797 5797 5797 5797 5797
5791 5791 5791 5791 5791 5791 5791 5790 5789 5789 5789 5788 5788 5788 5788 5789 5790 5791 5790 5787 5786 5787 5787 5788 5788 5788 5789 5789 5788 5788 5788 5788 5788 5788 5788 5789 5789 5789 5789 5790 5790 5790 5790 5790 5790 5791 5791 5791 5792 5792 5792 5791 5791 5792 5792 5792 5791 5791 5790 5791 5791 5791 5791 5791 5791 5791 5791 5791 5791 5791 5791 5791 5791 5791 5792 5792 5792 5792 5792 5792 5792 5792 5792 5792 5792 5792 5793 5793 5793 5794 5794 5794 5794 5795 5795 5795 5794 5794 5794 5794 5794 5794 5794
5787 5787 5787 5787 5787 5787 5787 5787 5786 5785 5785 5784 5784 5784 5784 5784 5785 5786 5785 5784 5783 5782 5783 5784 5784 5785 5787 5785 5784 5785 5785 5785 5784 5784 5784 5785 5785 5785 5786 5786 5787 5787 5787 5787 5787 5787 5787 5788 5788 5788 5788 5788 5788 5788 5788 5788 5788 5787 5787 5787 5788 5788 5788 5788 5788 5788 5788 5788 5788 5788 5788 5788 5788 5789 5789 5789 5789 5789 5789 5789 5789 5789 5789 5790 5790 5790 5790 5791 5791 5792 5792 5792 5792 5792 5792 5792 5792 5792 5792 5792 5792 5792 5792
5784 5784 5783 5783 5783 5783 5783 5783 5782 5782 5781 5780 5780 5780 5781 5780 5781 5782 5783 5782 5780 5780 5781 5781 5780 5779 5781 5780 5780 5781 5781 5782 5782 5782 5780 5781 5782 5782 5782 5783 5783 5783 5783 5783 5783 5783 5784 5784 5785 5785 5785 5785 5785 5785 5785 5785 5785 5784 5784 5784 5785 5785 5785 5785 5785 5786 5786 5786 5786 5786 5786 5786 5786 5786 5786 5786 5786 5787 5787 5786 5787 5787 5787 5787 5787 5787 5788 5788 5788 5789 5789 5790 5790 5790 5790 5790 5790 5790 5790 5790 5790 5790 5790
5781 5780 5780 5780 5779 5779 5779 5779 5778 5778 5777 5776 5776 5776 5776 5776 5776 5776 5778 5778 5777 5777 5777 5777 5775 5775 5776 5775 5776 5777 5777 5778 5780 5779 5776 5777 5778 5778 5779 5779 5779 5780 5780 5780 5780 5780 5781 5781 5782 5782 5782 5782 5782 5782 5782 5782 5782 5782 5782 5782 5782 5782 5782 5782 5782 5782 5782 5783 5783 5783 5783 5783 5783 5783 5783 5783 5784 5784 5784 5784 5784 5784 5784 5784 5785 5785 5785 5786 5786 5787 5787 5787 5787 5787 5787 5787 5787 5787 5787 5787 5787 5788 5788
5777 5777 5777 5776 5776 5776 5775 5775 5774 5773 5773 5772 5772 5772 5772 5772 5772 5771 5771 5772 5772 5772 5772 5772 5772 5772 5772 5772 5772 5772 5773 5774 5776 5775 5772 5773 5774 5774 5775 5775 5776 5776 5776 5777 5777 5777 5777 5778 5778 5779 5778 5779 5779 5778 5778 5778 5778 5778 5779 5779 5779 5779 5779 5779 5779 5779 5780 5780 5780 5780 5780 5780 5781 5781 5781 5781 5781 5781 5781 5781 5781 5782 5782 5782 5782 5782 5783 5783 5783 5784 5784 5785 5785 5785 5785 5785 5785 5785 5785 5785 5785 5785 5785
5773 5773 5773 5772 5772 5772 5771 5771 5770 5769 5769 5768 5768 5768 5768 5767 5767 5767 5767 5767 5767 5767 5767 5767 5769 5769 5768 5768 5768 5768 5769 5769 5770 5770 5768 5769 5770 5770 5771 5771 5771 5772 5772 5773 5773 5773 5774 5774 5775 5775 5775 5776 5776 5776 5775 5775 5776 5776 5776 5776 5776 5776 5776 5776 5776 5776 5777 5777 5777 5777 5777 5778 5778 5778 5778 5778 5778 5778 5778 5779 5779 5779 5779 5779 5780 5780 5780 5781 5781 5782 5782 5782 5782 5783 5783 5783 5783 5783 5783 5783 5783 5783 5783
5770 5769 5769 5769 5768 5768 5767 5767 5766 5765 5765 5765 5764 5763 5763 5763 5763 5763 5763 5763 5763 5762 5762 5763 5763 5764 5764 5764 5764 5765 5765 5765 5766 5766 5764 5765 5766 5766 5766 5767 5767 5767 5768 5769 5769 5769 5770 5770 5771 5772 5773 5772 5772 5772 5772 5772 5772 5772 5773 5773 5773 5773 5773 5773 5773 5773 5774 5774 5774 5774 5775 5775 5775 5776 5776 5776 5776 5776 5776 5776 5776 5776 5777 5777 5777 5777 5778 5778 5779 5779 5780 5780 5780 5780 5780 5780 5780 5780 5780 5781 5781 5781 5781
5766 5765 5765 5765 5764 5764 5763 5762 5762 5761 5761 5760 5760 5759 5759 5759 5759 5759 5759 5759 5759 5759 5758 5758 5759 5759 5759 5760 5760 5761 5762 5762 5763 5763 5762 5761 5762 5762 5762 5763 5763 5763 5764 5765 5765 5766 5767 5767 5767 5769 5771 5770 5768 5768 5768 5769 5769 5769 5769 5769 5770 5770 5770 5770 5770 5770 5771 5771 5771 5772 5772 5772 5772 5773 5773 5773 5773 5773 5773 5773 5773 5774 5774 5774 5775 5775 5775 5776 5776 5777 5777 5777 5778 5778 5778 5778 5778 5778 5778 5778 5778 5778 5779
5762 5761 5761 5761 5760 5760 5759 5758 5757 5757 5756 5756 5756 5756 5755 5755 5755 5755 5754 5754 5754 5755 5754 5754 5755 5755 5755 5756 5757 5757 5758 5758 5760 5760 5759 5757 5757 5758 5759 5759 5759 5760 5760 5761 5762 5762 5763 5763 5764 5765 5766 5765 5764 5764 5765 5765 5765 5766 5766 5766 5766 5767 5767 5767 5767 5767 5767 5768 5768 5768 5769 5769 5770 5770 5770 5771 5771 5771 5771 5771 5771 5771 5771 5772 5772 5772 5773 5773 5774 5774 5775 5775 5775 5775 5775 5775 5776 5776 5776 5776 5776 5776 5776
5757 5757 5757 5756 5756 5756 5755 5754 5753 5752 5752 5752 5752 5752 5751 5751 5750 5750 5750 5750 5750 5750 5750 5750 5751 5751 5751 5751 5752 5753 5754 5754 5756 5757 5756 5753 5753 5754 5755 5755 5756 5756 5756 5757 5758 5759 5760 5760 5760 5761 5761 5761 5761 5761 5761 5762 5762 5762 5762 5763 5763 5763 5763 5763 5764 5764 5764 5764 5765 5765 5766 5766 5767 5767 5767 5768 5768 5769 5769 5768 5768 5769 5769 5769 5769 5770 5770 5771 5771 5772 5772 5772 5773 5773 5773 5773 5773 5773 5773 5774 5774 5774 5774
5753 5753 5752 5752 5752 5751 5751 5750 5749 5748 5748 5747 5747 5747 5747 5747 5746 5745 5745 5745 5745 5746 5746 5746 5747 5747 5747 5747 5748 5749 5749 5750 5751 5752 5752 5750 5750 5751 5751 5752 5752 5752 5752 5753 5754 5756 5756 5756 5757 5757 5757 5757 5757 5758 5758 5758 5758 5758 5759 5759 5760 5760 5760 5760 5760 5761 5761 5761 5762 5762 5762 5763 5763 5764 5764 5765 5766 5766 5766 5766 5766 5766 5766 5767 5767 5767 5768 5768 5769 5769 5770 5770 5770 5770 5770 5771 5771 5771 5771 5771 5772 5772 5772
5749 5748 5748 5747 5747 5746 5746 5745 5744 5744 5743 5743 5743 5743 5743 5742 5742 5741 5740 5741 5741 5741 5742 5742 5742 5742 5742 5742 5744 5745 5745 5746 5747 5748 5749 5747 5747 5747 5748 5748 5749 5749 5749 5749 5751 5752 5752 5753 5753 5753 5753 5754 5755 5756 5755 5755 5755 5755 5756 5756 5757 5757 5757 5757 5757 5757 5757 5758 5758 5758 5759 5760 5760 5761 5761 5762 5762 5763 5763 5764 5764 5764 5764 5764 5765 5765 5765 5766 5766 5767 5767 5767 5768 5768 5768 5768 5768 5768 5769 5769 5769 5769 5769
5744 5743 5743 5742 5742 5741 5740 5740 5739 5738 5738 5738 5738 5738 5738 5738 5738 5738 5736 5736 5736 5736 5737 5737 5738 5738 5738 5738 5739 5740 5741 5741 5742 5743 5745 5744 5743 5743 5744 5745 5746 5747 5746 5746 5747 5748 5749 5749 5749 5750 5750 5751 5752 5752 5751 5751 5751 5752 5752 5753 5753 5753 5753 5753 5754 5754 5754 5754 5755 5755 5756 5757 5757 5757 5758 5759 5759 5760 5761 5761 5762 5762 5762 5762 5762 5762 5763 5763 5764 5764 5765 5765 5765 5765 5765 5766 5766 5766 5767 5767 5767 5767 5767
5738 5738 5737 5737 5736 5736 5735 5734 5733 5733 5732 5732 5732 5733 5733 5733 5733 5733 5732 5732 5731 5731 5732 5732 5732 5733 5734 5734 5734 5735 5737 5737 5737 5738 5740 5741 5739 5737 5740 5742 5743 5743 5742 5742 5742 5744 5745 5746 5746 5746 5747 5748 5748 5748 5748 5748 5748 5748 5749 5749 5749 5750 5750 5750 5750 5750 5751 5751 5752 5752 5753 5753 5754 5754 5755 5756 5756 5757 5758 5758 5759 5759 5759 5760 5760 5760 5760 5761 5761 5762 5762 5762 5763 5763 5763 5763 5763 5764 5764 5764 5765 5765 5765
5733 5733 5732 5731 5731 5730 5730 5729 5728 5727 5727 5726 5726 5727 5727 5727 5727 5727 5727 5727 5726 5726 5726 5726 5727 5728 5729 5729 5729 5731 5732 5732 5734 5736 5737 5736 5734 5734 5735 5737 5738 5738 5738 5738 5739 5740 5741 5742 5742 5743 5743 5744 5744 5744 5744 5745 5745 5745 5745 5746 5746 5746 5746 5747 5747 5747 5747 5747 5748 5749 5750 5750 5751 5751 5752 5752 5753 5754 5755 5756 5756 5757 5757 5757 5757 5757 5758 5758 5759 5759 5760 5760 5760 5760 5760 5761 5761 5762 5762 5762 5762 5762 5762
5729 5728 5727 5726 5726 5725 5725 5724 5723 5722 5721 5721 5720 5720 5721 5721 5721 5721 5721 5721 5721 5721 5721 5721 5722 5722 5724 5724 5725 5726 5727 5728 5730 5732 5730 5728 5729 5731 5731 5732 5733 5733 5733 5734 5735 5737 5738 5739 5739 5740 5740 5741 5741 5741 5741 5742 5742 5742 5742 5742 5742 5742 5743 5743 5743 5744 5744 5744 5745 5746 5747 5747 5748 5748 5749 5749 5750 5751 5752 5752 5753 5754 5754 5755 5755 5755 5756 5756 5756 5757 5757 5757 5757 5758 5758 5758 5759 5759 5760 5760 5760 5760 5760
5724 5723 5722 5722 5721 5720 5719 5718 5717 5716 5715 5715 5714 5714 5714 5714 5714 5714 5714 5715 5714 5715 5716 5715 5716 5717 5718 5719 5720 5721 5722 5724 5727 5727 5725 5726 5727 5729 5729 5730 5731 5730 5729 5731 5732 5733 5735 5736 5736 5737 5737 5737 5737 5738 5738 5738 5738 5738 5739 5739 5739 5739 5739 5740 5740 5740 5741 5741 5742 5742 5743 5744 5745 5745 5746 5746 5747 5748 5749 5749 5750 5751 5752 5752 5752 5752 5753 5753 5754 5754 5754 5755 5755 5755 5756 5756 5757 5757 5757 5757 5757 5757 5757
5720 5719 5718 5717 5716 5715 5714 5713 5712 5711 5709 5709 5708 5707 5707 5707 5707 5707 5707 5708 5708 5708 5708 5709 5709 5710 5711 5712 5714 5716 5717 5718 5720 5721 5722 5724 5727 5728 5728 5728 5726 5725 5726 5727 5728 5729 5732 5733 5733 5734 5734 5734 5734 5734 5735 5735 5735 5735 5735 5736 5736 5736 5736 5737 5737 5737 5738 5738 5739 5739 5740 5741 5742 5742 5743 5743 5744 5745 5746 5746 5747 5748 5749 5749 5750 5750 5751 5751 5751 5752 5752 5752 5752 5753 5753 5753 5754 5755 5755 5755 5755 5755 5755
5715 5714 5713 5712 5710 5709 5708 5707 5706 5704 5703 5702 5702 5701 5700 5700 5701 5701 5701 5701 5701 5701 5701 5702 5702 5703 5703 5705 5707 5710 5712 5713 5715 5716 5717 5720 5723 5724 5724 5722 5720 5720 5722 5723 5723 5725 5728 5730 5730 5729 5730 5730 5730 5731 5731 5732 5732 5732 5732 5732 5732 5733 5733 5734 5734 5735 5736 5735 5736 5737 5737 5738 5738 5739 5740 5741 5741 5742 5742 5743 5744 5745 5746 5747 5747 5747 5748 5748 5749 5749 5749 5750 5750 5750 5751 5751 5752 5752 5752 5752 5752 5752 5752
5710 5708 5707 5705 5704 5703 5702 5701 5699 5698 5696 5695 5694 5694 5693 5693 5693 5693 5693 5693 5693 5693 5694 5694 5695 5696 5697 5698 5701 5703 5706 5707 5708 5710 5711 5714 5717 5718 5717 5716 5717 5719 5720 5720 5719 5721 5725 5727 5727 5725 5725 5727 5727 5728 5728 5729 5729 5729 5729 5730 5730 5730 5731 5732 5732 5732 5732 5732 5733 5733 5734 5735 5735 5736 5737 5737 5738 5739 5739 5740 5741 5742 5743 5743 5744 5745 5745 5746 5746 5747 5747 5747 5747 5748 5748 5749 5749 5750 5750 5750 5750 5750 5750
5703 5702 5700 5698 5697 5695 5694 5693 5692 5691 5689 5687 5686 5686 5685 5685 5685 5685 5685 5685 5685 5686 5686 5687 5688 5689 5690 5691 5694 5697 5699 5701 5702 5704 5706 5708 5710 5712 5712 5713 5714 5715 5715 5716 5716 5718 5722 5723 5722 5721 5721 5723 5724 5724 5725 5726 5726 5726 5727 5727 5727 5727 5728 5728 5728 5728 5729 5729 5730 5730 5731 5732 5732 5733 5734 5734 5735 5736 5737 5737 5738 5739 5740 5741 5742 5742 5743 5743 5744 5744 5744 5745 5745 5746 5746 5747 5747 5747 5747 5747 5747 5747 5747
5696 5694 5692 5691 5689 5687 5686 5685 5684 5682 5681 5680 5678 5677 5677 5676 5677 5677 5677 5677 5677 5678 5678 5679 5680 5682 5684 5685 5687 5689 5692 5694 5696 5698 5700 5702 5704 5706 5708 5708 5708 5708 5710 5711 5713 5716 5718 5718 5718 5717 5717 5720 5721 5721 5722 5723 5723 5723 5724 5724 5724 5724 5725 5725 5725 5726 5726 5727 5727 5727 5728 5728 5729 5730 5731 5732 5733 5733 5734 5735 5735 5736 5737 5738 5739 5739 5740 5741 5741 5741 5742 5742 5743 5743 5744 5744 5744 5744 5744 5744 5745 5745 5745
5689 5687 5685 5683 5681 5679 5677 5676 5675 5673 5672 5671 5670 5668 5667 5667 5667 5667 5668 5669 5669 5669 5670 5671 5672 5674 5677 5680 5680 5681 5684 5687 5690 5693 5695 5696 5698 5700 5701 5703 5705 5707 5708 5708 5710 5712 5713 5714 5714 5713 5715 5717 5717 5718 5719 5719 5720 5721 5721 5721 5721 5721 5722 5722 5722 5723 5723 5723 5724 5724 5725 5726 5726 5727 5728 5729 5730 5730 5731 5732 5733 5733 5734 5735 5736 5737 5737 5738 5738 5739 5739 5740 5741 5741 5741 5742 5742 5742 5742 5742 5742 5742 5742
5682 5680 5677 5675 5673 5671 5669 5667 5665 5664 5662 5661 5660 5659 5658 5657 5657 5657 5658 5659 5660 5661 5661 5662 5663 5665 5669 5672 5674 5676 5677 5680 5684 5687 5689 5691 5692 5695 5697 5700 5703 5707 5706 5706 5707 5708 5709 5709 5709 5711 5712 5712 5713 5715 5716 5716 5717 5717 5718 5718 5718 5718 5718 5719 5719 5720 5720 5720 5721 5721 5722 5722 5723 5724 5725 5726 5727 5727 5728 5729 5730 5731 5732 5732 5733 5734 5734 5735 5736 5736 5737 5737 5738 5739 5739 5739 5739 5739 5739 5739 5739 5740 5740
5675 5672 5670 5667 5664 5662 5659 5657 5655 5653 5652 5650 5649 5648 5647 5647 5647 5647 5647 5649 5650 5651 5652 5653 5654 5656 5659 5662 5665 5668 5670 5673 5677 5681 5683 5685 5687 5690 5693 5695 5698 5701 5701 5702 5704 5706 5706 5705 5705 5707 5707 5708 5709 5711 5712 5713 5714 5714 5715 5715 5715 5715 5716 5716 5716 5717 5717 5717 5718 5718 5719 5720 5720 5721 5722 5723 5724 5725 5726 5727 5728 5728 5729 5730 5731 5731 5732 5732 5733 5734 5734 5735 5736 5736 5737 5737 5736 5736 5736 5737 5737 5737 5737
5668 5665 5662 5659 5656 5653 5650 5648 5645 5643 5641 5639 5638 5637 5637 5637 5636 5637 5637 5638 5639 5641 5642 5643 5646 5648 5650 5654 5657 5660 5663 5667 5671 5675 5677 5679 5682 5685 5689 5690 5693 5697 5697 5698 5701 5702 5702 5701 5702 5703 5703 5704 5706 5707 5708 5709 5711 5711 5711 5712 5712 5712 5712 5713 5713 5714 5714 5714 5715 5716 5716 5717 5718 5719 5720 5721 5722 5722 5723 5724 5725 5726 5727 5727 5728 5728 5729 5729 5730 5731 5732 5732 5733 5734 5734 5734 5734 5734 5734 5734 5734 5735 5735